Amelia, Virginia, United States
Lat: 37.37N, Lon: 77.92W
Wx Zone: VAZ068
Local Info
Past Weather Observations for Friday, November 21, 2014

NOTE: This archive is for the closest National Weather Service station to Amelia. Information may differ from the station used for current weather conditions.

Click here for Long-term Archive

Time Weather Temperature Dewpoint Humidity Pressure Winds Precip Visibility
23:55
Clear
21°F / -6°C 18°F / -8°C 86% 30.57 in
(1035 mb)
Calm - 10SM
23:35
Clear
21°F / -6°C 18°F / -8°C 86% 30.57 in
(1035 mb)
Calm - 10SM
23:15
Clear
21°F / -6°C 18°F / -8°C 86% 30.57 in
(1035 mb)
Calm - 10SM
22:55
Clear
21°F / -6°C 18°F / -8°C 86% 30.57 in
(1035 mb)
Calm - 10SM
22:35
Clear
21°F / -6°C 18°F / -8°C 86% 30.57 in
(1035 mb)
Calm - 10SM
22:15
Clear
21°F / -6°C 18°F / -8°C 86% 30.57 in
(1035 mb)
Calm - 10SM
21:55
Clear
23°F / -5°C 18°F / -8°C 80% 30.57 in
(1035 mb)
Calm - 10SM
21:35
Clear
23°F / -5°C 18°F / -8°C 80% 30.57 in
(1035 mb)
Calm - 10SM
21:15
Clear
23°F / -5°C 19°F / -7°C 86% 30.57 in
(1035 mb)
Calm - 10SM
20:55
Clear
23°F / -5°C 18°F / -8°C 80% 30.57 in
(1035 mb)
Calm - 10SM
20:35
Clear
25°F / -4°C 18°F / -8°C 74% 30.57 in
(1035 mb)
Calm - 10SM
20:15
Clear
25°F / -4°C 18°F / -8°C 74% 30.57 in
(1035 mb)
Calm - 10SM
19:55
Clear
27°F / -3°C 18°F / -8°C 69% 30.57 in
(1035 mb)
Calm - 10SM
19:35
Clear
28°F / -2°C 16°F / -9°C 59% 30.54 in
(1034 mb)
Calm - 10SM
19:15
Clear
27°F / -3°C 16°F / -9°C 64% 30.54 in
(1034 mb)
Calm - 10SM
18:55
Clear
27°F / -3°C 16°F / -9°C 64% 30.54 in
(1034 mb)
Calm - 10SM
18:35
Clear
28°F / -2°C 16°F / -9°C 59% 30.54 in
(1034 mb)
SSE 3.5 mph
(SSE 6 kph)
- 10SM
18:15
Clear
28°F / -2°C 16°F / -9°C 59% 30.54 in
(1034 mb)
Calm - 10SM
17:55
Clear
30°F / -1°C 14°F / -10°C 51% 30.54 in
(1034 mb)
Calm - 10SM
17:35
Clear
32°F / 0°C 14°F / -10°C 47% 30.54 in
(1034 mb)
SE 3.5 mph
(SE 6 kph)
- 10SM
17:15
Clear
34°F / 1°C 12°F / -11°C 41% 30.51 in
(1033 mb)
Calm - 10SM
16:55
Clear
39°F / 4°C 7°F / -14°C 26% 30.51 in
(1033 mb)
W 3.5 mph
(W 6 kph)
- 10SM
16:35
Clear
41°F / 5°C 5°F / -15°C 22% 30.51 in
(1033 mb)
NW 5.8 mph
(NW 9 kph)
- 10SM
16:15
Clear
41°F / 5°C 7°F / -14°C 24% 30.51 in
(1033 mb)
NW 9.2 mph
(NW 15 kph)
- 10SM
15:55
Clear
43°F / 6°C 5°F / -15°C 21% 30.51 in
(1033 mb)
NW 5.8 mph
(NW 9 kph)
- 10SM
15:35
Clear
43°F / 6°C 5°F / -15°C 21% 30.48 in
(1032 mb)
W 3.5 mph
(W 6 kph)
- 10SM
15:15
Clear
43°F / 6°C 5°F / -15°C 21% 30.48 in
(1032 mb)
W 8.1 mph
(W 13 kph)
- 10SM
14:55
Clear
43°F / 6°C 7°F / -14°C 22% 30.45 in
(1031 mb)
NW 9.2 mph
(NW 15 kph)
- 10SM
14:35
Clear
43°F / 6°C 7°F / -14°C 22% 30.45 in
(1031 mb)
Calm - 10SM
14:15
Clear
43°F / 6°C 7°F / -14°C 22% 30.45 in
(1031 mb)
NW 10.4 mph
(NW 17 kph)
- 10SM
13:55
Clear
43°F / 6°C 9°F / -13°C 24% 30.45 in
(1031 mb)
NW 6.9 mph
(NW 11 kph)
- 10SM
13:35
Clear
43°F / 6°C 7°F / -14°C 22% 30.45 in
(1031 mb)
N 8.1 mph
(N 13 kph)
- 10SM
13:15
Clear
43°F / 6°C 5°F / -15°C 21% 30.45 in
(1031 mb)
NNW 10.4 mph
(NNW 17 kph)
- 10SM
12:55
Clear
43°F / 6°C 7°F / -14°C 22% 30.45 in
(1031 mb)
N 11.5 mph
(N 19 kph)
- 10SM
12:35
Clear
43°F / 6°C 7°F / -14°C 22% 30.45 in
(1031 mb)
NW 6.9 mph
(NW 11 kph)
- 10SM
12:15
Clear
41°F / 5°C 7°F / -14°C 24% 30.45 in
(1031 mb)
NNW 8.1 mph
(NNW 13 kph)
- 10SM
10:55
Clear
41°F / 5°C 9°F / -13°C 26% 30.45 in
(1031 mb)
NW 12.7 mph
(NW 20 kph)
- 10SM
10:35
Clear
41°F / 5°C 10°F / -12°C 28% 30.45 in
(1031 mb)
NW 10.4 mph
(NW 17 kph)
- 10SM
10:15
Clear
41°F / 5°C 10°F / -12°C 28% 30.45 in
(1031 mb)
WNW 8.1 mph
(WNW 13 kph)
- 10SM
09:55
Clear
39°F / 4°C 12°F / -11°C 33% 30.42 in
(1030 mb)
NW 11.5 mph
(NW 19 kph)
- 10SM
09:35
Clear
39°F / 4°C 16°F / -9°C 39% 30.42 in
(1030 mb)
NW 10.4 mph
(NW 17 kph)
- 10SM
09:15
Clear
37°F / 3°C 16°F / -9°C 41% 30.42 in
(1030 mb)
NNW 6.9 mph
(NNW 11 kph)
- 10SM
08:55
Clear
37°F / 3°C 19°F / -7°C 48% 30.42 in
(1030 mb)
N 5.8 mph
(N 9 kph)
- 10SM
08:35
Clear
36°F / 2°C 19°F / -7°C 52% 30.42 in
(1030 mb)
NW 4.6 mph
(NW 7 kph)
- 10SM
08:15
Clear
32°F / 0°C 25°F / -4°C 75% 30.42 in
(1030 mb)
Calm - 10SM
07:55
Clear
28°F / -2°C 27°F / -3°C 93% 30.39 in
(1029 mb)
Calm - 10SM
07:35
Clear
27°F / -3°C 21°F / -6°C 80% 30.39 in
(1029 mb)
Calm - 10SM
07:15
Clear
25°F / -4°C 21°F / -6°C 86% 30.36 in
(1028 mb)
Calm - 10SM
06:55
Clear
25°F / -4°C 21°F / -6°C 86% 30.36 in
(1028 mb)
Calm - 10SM
06:35
Clear
28°F / -2°C 21°F / -6°C 74% 30.33 in
(1027 mb)
Calm - 10SM
06:15
Clear
30°F / -1°C 19°F / -7°C 64% 30.3 in
(1026 mb)
NW 3.5 mph
(NW 6 kph)
- 10SM
05:55
Clear
25°F / -4°C 21°F / -6°C 86% 30.3 in
(1026 mb)
Calm - 10SM
05:35
Clear
23°F / -5°C 21°F / -6°C 93% 30.3 in
(1026 mb)
Calm - 10SM
05:15
Clear
23°F / -5°C 21°F / -6°C 93% 30.27 in
(1025 mb)
Calm - 10SM
04:55
Clear
25°F / -4°C 23°F / -5°C 93% 30.27 in
(1025 mb)
Calm - 10SM
04:35
Clear
25°F / -4°C 23°F / -5°C 93% 30.24 in
(1024 mb)
Calm - 10SM
04:15
Clear
25°F / -4°C 23°F / -5°C 93% 30.24 in
(1024 mb)
Calm - 10SM
03:55
Clear
25°F / -4°C 21°F / -6°C 86% 30.24 in
(1024 mb)
Calm - 10SM
03:35
Clear
25°F / -4°C 23°F / -5°C 93% 30.24 in
(1024 mb)
Calm - 10SM
03:15
Clear
25°F / -4°C 23°F / -5°C 93% 30.21 in
(1023 mb)
Calm - 10SM
02:55
Clear
27°F / -3°C 23°F / -5°C 86% 30.21 in
(1023 mb)
Calm - 10SM
02:35
Clear
27°F / -3°C 23°F / -5°C 86% 30.18 in
(1022 mb)
W 3.5 mph
(W 6 kph)
- 10SM
02:15
Clear
27°F / -3°C 23°F / -5°C 86% 30.18 in
(1022 mb)
Calm - 10SM
01:55
Clear
28°F / -2°C 25°F / -4°C 86% 30.18 in
(1022 mb)
SSW 4.6 mph
(SSW 7 kph)
- 10SM
01:35
Clear
30°F / -1°C 25°F / -4°C 80% 30.15 in
(1021 mb)
SSW 4.6 mph
(SSW 7 kph)
- 10SM
01:15
Clear
27°F / -3°C 25°F / -4°C 93% 30.15 in
(1021 mb)
SW 4.6 mph
(SW 7 kph)
- 10SM
00:55
Clear
28°F / -2°C 25°F / -4°C 86% 30.15 in
(1021 mb)
Calm - 10SM
00:35
Clear
28°F / -2°C 23°F / -5°C 80% 30.12 in
(1020 mb)
SSW 4.6 mph
(SSW 7 kph)
- 10SM
00:15
Clear
28°F / -2°C 25°F / -4°C 86% 30.12 in
(1020 mb)
SSW 4.6 mph
(SSW 7 kph)
- 10SM
Time Weather Temperature Dewpoint Humidity Pressure Winds Precip Visibility


Weather for websites

WeatherForYou.com, LLC is not responsible for any damages or problems caused by this service. Current weather conditions are obtained from the closest station including government and personal stations which may have varying degrees of accuracy. Weather forecasts are derived from the NOAA NDFD. Like all things, this site belongs to Jesus Christ... He just trusts me to maintain it. If you have any questions or comments email webmaster@weatherforyou.com

Copyright © 2014, WeatherForYou.com LLC. All rights reserved.